Weather in Sniatyn

Ukraine / Ivano-Frankovsk District     48°27′04″N   25°34′15″E
temp.,
°C
wind,
m/s
gust,
m/s
humid.,
%
clouds,
%
prec.,
mm/h
press.,
hPa
HPBL,
m
17 august, wed
wed1700:00+18w348996 0.0 100963
03:00+17w239357 0.0 100953
06:00+18wnw4992100 1.0 1009326
09:00+19nw698697 1.1 1010654
12:00+24nnw576144 0.1 10101189
15:00+27nnw675074 0.9 10101807
18:00+24nw586834 0.6 1010515
21:00+19wnw36925 2.2 1011120
18 august, thu
thu1800:00+18wnw36955 0.1 1012113
03:00+17wnw38955 0.1 1012181
06:00+16wnw36961 0.0 1012132
09:00+20nw46822 0.0 1013376
12:00+26nnw56584 0.5 10121155
15:00+27nne4548100 0.7 10111833
18:00+27nnw344976 0.0 1012872
21:00+24wnw2258100 0.0 101216
19 august, fri
fri1900:00+23w2264100 0.0 101221
03:00+21nw12710 0.0 101215
06:00+18wnw11800 0.0 101312
09:00+23n11580 0.0 1013304
12:00+29ene22393 0.0 10121202
15:00+32ne11310 0.0 10121898
18:00+31ene33304 0.0 10112001
21:00+24ene49510 0.0 1011133
20 august, sat
sat2000:00+21se11635 0.0 101215
03:00+19ese226614 0.0 101315
06:00+19se236949 0.0 101155
09:00+24ese355469 0.0 1012306
12:00+31ese563521 0.0 10111254
15:00+34ese542993 0.0 10092051
18:00+33e653045 0.0 10081851
21:00+22wsw71381100 0.6 1012331
21 august, sun
sun2100:00+20sse1277100 0.1 101035
03:00+19wnw3488100 0.5 101271
06:00+18w389727 0.1 1012208
09:00+21wnw568392 0.1 1012472
12:00+25wnw4463100 0.0 1012741
15:00+30w4245100 0.0 10101717
18:00+26wnw6761100 0.9 1010793
21:00+21wnw498886 2.8 1011282